Laramie, WY

1:58 PM MDT on September 25, 2016 (GMT -0600)
Laramie Regional

Weather History for KLAR - September, 2013

Change the Weather History Date:

Sunday, September 29, 2013

  Actual Average Record
Temperature  
Mean Temperature 49 °F 48 °F  
Max Temperature 64 °F 63 °F 80 °F (1957)
Min Temperature 34 °F 33 °F 10 °F (1984)
Degree Days  
Heating Degree Days 16 17  
Month to date heating degree days 246 335  
Since 1 July heating degree days 317 507  
Cooling Degree Days 0 0  
Month to date cooling degree days 24 0  
Year to date cooling degree days 162 66  
Moisture  
Dew Point 22 °F    
Average Humidity 47    
Maximum Humidity 75    
Minimum Humidity 19    
Precipitation  
Precipitation 0.00 in 0.04 in 0.89 in (1965)
Month to date precipitation 3.05 1.08  
Year to date precipitation 9.38 9.23  
Sea Level Pressure  
Sea Level Pressure 29.90 in    
Wind  
Wind Speed 17 mph (SW)    
Max Wind Speed 30 mph    
Max Gust Speed 38 mph    
Visibility 10 miles    
Events      
T = Trace of Precipitation, MM = Missing Value Source: NWS Daily Summary

Daily Weather History Graph

Daily Weather History Graph

Search for Another Location

Airport or City:

Trip Planner

Search our weather history database for the weather conditions in past years. The results will help you decide how hot, cold, wet, or windy it might be!

Date:

Astronomy

Sep. 29, 2013 Rise Set
Actual Time 6:57 AM MDT 6:47 PM MDT
Civil Twilight 6:30 AM MDT 7:14 PM MDT
Nautical Twilight 5:58 AM MDT 7:46 PM MDT
Astronomical Twilight 5:25 AM MDT 8:19 PM MDT
Moon 1:38 AM MDT (9/29) 3:47 PM MDT (9/29)
Length of Visible Light 12h 44m
Length of Day
11h 49m
Waning Crescent, 26% of the Moon is Illuminated
Sep 29
Waning Crescent
Oct 4
New
Oct 11
First Quarter
Oct 18
Full
Oct 26
Last Quarter

Hourly Weather History & Observations

Time (MDT) Temp. Windchill Dew Point Humidity Pressure Visibility Wind Dir Wind Speed Gust Speed Precip Events Conditions
12:53 AM 34.0 °F 28.0 °F 27.0 °F 75% 30.06 in 10.0 mi SSE 6.9 mph - N/A   Clear
1:53 AM 41.0 °F 33.9 °F 26.1 °F 55% 30.02 in 10.0 mi SSW 12.7 mph - N/A   Clear
2:53 AM 41.0 °F 34.3 °F 24.1 °F 51% 29.99 in 10.0 mi South 11.5 mph - N/A   Clear
3:53 AM 43.0 °F 35.7 °F 21.9 °F 43% 29.98 in 10.0 mi SSW 15.0 mph - N/A   Clear
4:53 AM 43.0 °F 38.2 °F 21.0 °F 42% 29.98 in 10.0 mi SSE 8.1 mph - N/A   Clear
5:53 AM 44.1 °F 38.6 °F 19.9 °F 38% 30.00 in 10.0 mi SSW 10.4 mph 21.9 mph N/A   Clear
6:53 AM 39.9 °F 35.1 °F 21.0 °F 47% 30.03 in 10.0 mi SE 6.9 mph - N/A   Clear
7:53 AM 42.1 °F 35.7 °F 21.9 °F 45% 30.01 in 10.0 mi South 11.5 mph - N/A   Clear
8:53 AM 45.0 °F 39.7 °F 23.0 °F 42% 30.02 in 10.0 mi South 10.4 mph - N/A   Clear
9:53 AM 51.1 °F - 23.0 °F 33% 29.98 in 10.0 mi SSW 19.6 mph 25.3 mph N/A   Clear
10:53 AM 57.0 °F - 24.1 °F 28% 29.92 in 10.0 mi SW 19.6 mph 26.5 mph N/A   Clear
11:53 AM 59.0 °F - 21.9 °F 24% 29.86 in 10.0 mi WSW 17.3 mph 24.2 mph N/A   Clear
12:53 PM 62.1 °F - 21.0 °F 21% 29.88 in 10.0 mi West 18.4 mph 26.5 mph N/A   Clear
1:53 PM 64.0 °F - 21.9 °F 20% 29.82 in 10.0 mi West 21.9 mph 34.5 mph N/A   Clear
2:53 PM 62.1 °F - 23.0 °F 22% 29.79 in 10.0 mi WSW 27.6 mph 34.5 mph N/A   Clear
3:53 PM 63.0 °F - 23.0 °F 22% 29.78 in 10.0 mi SW 23.0 mph 38.0 mph N/A   Clear
4:53 PM 62.1 °F - 23.0 °F 22% 29.78 in 10.0 mi SW 24.2 mph 32.2 mph N/A   Clear
5:53 PM 59.0 °F - 21.9 °F 24% 29.78 in 10.0 mi SW 19.6 mph - N/A   Clear
6:53 PM 55.0 °F - 24.1 °F 30% 29.83 in 10.0 mi SW 15.0 mph - N/A   Clear
7:53 PM 55.9 °F - 21.0 °F 26% 29.85 in 10.0 mi West 15.0 mph 24.2 mph N/A   Scattered Clouds
8:53 PM 52.0 °F - 21.9 °F 31% 29.83 in 10.0 mi WSW 16.1 mph - N/A   Clear
9:53 PM 52.0 °F - 21.9 °F 31% 29.79 in 10.0 mi WSW 15.0 mph - N/A   Clear
10:53 PM 55.0 °F - 21.0 °F 27% 29.78 in 10.0 mi West 20.7 mph - N/A   Clear
11:53 PM 54.0 °F - 21.0 °F 28% 29.76 in 10.0 mi West 24.2 mph 32.2 mph N/A   Clear